| time (UTC) | temp F | wind direction | speed MPH | gust MPH | rain 1hr in | rain 24hr in | rain mn in | humidity % | barometer mb |
| 20260507234036 | 70 | 332 | 8.0 | 13.0 | 0.00 | 0.00 | 0.00 | 34 | 1009.9 |
| 20260507233016 | 70 | 330 | 7.0 | 12.0 | 0.00 | 0.02 | 0.00 | 34 | 1010.0 |
| 20260507232017 | 70 | 326 | 8.0 | 13.0 | 0.00 | 0.02 | 0.00 | 35 | 1009.9 |
| 20260507231020 | 71 | 347 | 7.0 | 13.0 | 0.00 | 0.02 | 0.00 | 36 | 1009.9 |
| 20260507230020 | 70 | 5 | 4.0 | 8.0 | 0.00 | 0.02 | 0.00 | 38 | 1010.0 |
| 20260507225017 | 70 | 12 | 8.0 | 13.0 | 0.00 | 0.02 | 0.00 | 37 | 1009.8 |
| 20260507224017 | 71 | 31 | 5.0 | 10.0 | 0.00 | 0.02 | 0.00 | 37 | 1009.9 |
| 20260507223017 | 70 | 5 | 6.0 | 11.0 | 0.00 | 0.02 | 0.00 | 37 | 1010.0 |
| 20260507222017 | 70 | 337 | 7.0 | 13.0 | 0.00 | 0.02 | 0.00 | 37 | 1010.1 |
| 20260507221018 | 70 | 20 | 6.0 | 10.0 | 0.00 | 0.02 | 0.00 | 39 | 1010.1 |
| 20260507220018 | 69 | 26 | 5.0 | 10.0 | 0.00 | 0.02 | 0.00 | 40 | 1010.2 |
| 20260507215018 | 68 | 5 | 6.0 | 9.0 | 0.00 | 0.02 | 0.00 | 40 | 1010.3 |
| 20260507214021 | 67 | 40 | 6.0 | 11.0 | 0.00 | 0.02 | 0.00 | 40 | 1010.2 |
| 20260507213019 | 67 | 21 | 6.0 | 10.0 | 0.00 | 0.02 | 0.00 | 41 | 1010.4 |
| 20260507212016 | 68 | 31 | 6.0 | 12.0 | 0.00 | 0.02 | 0.00 | 41 | 1010.5 |
| 20260507211019 | 69 | 12 | 6.0 | 9.0 | 0.00 | 0.02 | 0.00 | 41 | 1010.7 |
| 20260507210019 | 67 | 351 | 5.0 | 9.0 | 0.00 | 0.02 | 0.00 | 43 | 1010.8 |
| 20260507205019 | 68 | 18 | 6.0 | 10.0 | 0.00 | 0.02 | 0.00 | 41 | 1010.8 |
| 20260507204016 | 66 | 4 | 4.0 | 9.0 | 0.00 | 0.02 | 0.00 | 44 | 1011.0 |
| 20260507203016 | 66 | 355 | 6.0 | 12.0 | 0.00 | 0.02 | 0.00 | 43 | 1010.9 |
| 20260507202039 | 67 | 11 | 7.0 | 10.0 | 0.00 | 0.02 | 0.00 | 44 | 1010.9 |
| 20260507201017 | 67 | 356 | 5.0 | 10.0 | 0.00 | 0.02 | 0.00 | 43 | 1011.0 |
| 20260507200017 | 68 | 344 | 5.0 | 9.0 | 0.00 | 0.02 | 0.00 | 42 | 1011.0 |
| 20260507195017 | 67 | 329 | 6.0 | 10.0 | 0.00 | 0.02 | 0.00 | 42 | 1011.2 |
| 20260507194017 | 67 | 351 | 4.0 | 8.0 | 0.00 | 0.02 | 0.00 | 44 | 1011.3 |
| 20260507193018 | 67 | 349 | 5.0 | 9.0 | 0.00 | 0.02 | 0.00 | 43 | 1011.3 |
| 20260507192020 | 67 | 251 | 3.0 | 9.0 | 0.00 | 0.02 | 0.00 | 42 | 1011.2 |
| 20260507191018 | 66 | 11 | 5.0 | 10.0 | 0.00 | 0.02 | 0.00 | 47 | 1011.2 |
| 20260507190058 | 65 | 353 | 3.0 | 10.0 | 0.00 | 0.02 | 0.00 | 47 | 1011.4 |
| 20260507185018 | 65 | 326 | 6.0 | 14.0 | 0.00 | 0.02 | 0.00 | 46 | 1011.3 |
| 20260507184038 | 65 | 81 | 4.0 | 8.0 | 0.00 | 0.02 | 0.00 | 46 | 1011.4 |
| 20260507183015 | 65 | 304 | 3.0 | 9.0 | 0.00 | 0.02 | 0.00 | 46 | 1011.6 |
| 20260507182039 | 64 | 286 | 5.0 | 9.0 | 0.00 | 0.02 | 0.00 | 47 | 1011.7 |
| 20260507181019 | 64 | 321 | 4.0 | 8.0 | 0.00 | 0.02 | 0.00 | 46 | 1011.7 |
| 20260507180019 | 64 | 20 | 3.0 | 8.0 | 0.00 | 0.02 | 0.00 | 49 | 1011.9 |
| 20260507175036 | 63 | 345 | 6.0 | 10.0 | 0.00 | 0.02 | 0.00 | 48 | 1012.1 |
| 20260507174036 | 62 | 334 | 7.0 | 10.0 | 0.00 | 0.02 | 0.00 | 48 | 1012.2 |
| 20260507173017 | 62 | 325 | 7.0 | 10.0 | 0.00 | 0.02 | 0.00 | 47 | 1012.2 |
| 20260507172021 | 62 | 326 | 7.0 | 12.0 | 0.00 | 0.02 | 0.00 | 49 | 1012.3 |
| 20260507171017 | 62 | 343 | 5.0 | 10.0 | 0.00 | 0.02 | 0.00 | 52 | 1012.4 |
| 20260507170017 | 63 | 343 | 6.0 | 10.0 | 0.00 | 0.02 | 0.00 | 50 | 1012.2 |
| 20260507165017 | 62 | 339 | 5.0 | 9.0 | 0.00 | 0.02 | 0.00 | 50 | 1012.1 |
| 20260507164017 | 62 | 349 | 6.0 | 11.0 | 0.00 | 0.02 | 0.00 | 48 | 1012.1 |
| 20260507163017 | 62 | 358 | 6.0 | 11.0 | 0.00 | 0.02 | 0.00 | 48 | 1012.0 |
| 20260507162017 | 63 | 17 | 3.0 | 7.0 | 0.00 | 0.02 | 0.00 | 46 | 1012.1 |
| 20260507161018 | 63 | 4 | 4.0 | 8.0 | 0.00 | 0.02 | 0.00 | 47 | 1012.1 |
| 20260507160018 | 62 | 330 | 5.0 | 8.0 | 0.00 | 0.02 | 0.00 | 48 | 1012.0 |
| 20260507155018 | 61 | 356 | 5.0 | 9.0 | 0.00 | 0.02 | 0.00 | 51 | 1012.1 |
| 20260507154038 | 60 | 12 | 5.0 | 10.0 | 0.00 | 0.02 | 0.00 | 51 | 1012.2 |
| 20260507153016 | 59 | 313 | 2.0 | 6.0 | 0.00 | 0.02 | 0.00 | 56 | 1012.3 |
| 20260507152019 | 57 | 9 | 3.0 | 5.0 | 0.00 | 0.02 | 0.00 | 60 | 1012.4 |
| 20260507151019 | 56 | 264 | 2.0 | 4.0 | 0.00 | 0.02 | 0.00 | 70 | 1012.4 |
| 20260507150016 | 54 | 270 | 2.0 | 4.0 | 0.00 | 0.02 | 0.00 | 70 | 1012.3 |
| 20260507145016 | 53 | 177 | 2.0 | 5.0 | 0.00 | 0.02 | 0.00 | 78 | 1012.3 |
| 20260507144020 | 52 | 193 | 2.0 | 3.0 | 0.00 | 0.02 | 0.00 | 76 | 1012.2 |
| 20260507143019 | 51 | 230 | 1.0 | 2.0 | 0.00 | 0.02 | 0.00 | 78 | 1012.1 |
| 20260507142037 | 48 | 320 | 0.0 | 1.0 | 0.00 | 0.02 | 0.00 | 86 | 1012.0 |
| 20260507141037 | 45 | 13 | 1.0 | 3.0 | 0.00 | 0.02 | 0.00 | 92 | 1012.0 |
| 20260507140017 | 43 | 50 | 1.0 | 2.0 | 0.00 | 0.02 | 0.00 | 97 | 1011.9 |
| 20260507135017 | 42 | 288 | 2.0 | 3.0 | 0.00 | 0.02 | 0.00 | 98 | 1011.9 |
| 20260507134020 | 41 | 224 | 2.0 | 5.0 | 0.00 | 0.02 | 0.00 | 99 | 1011.8 |
| 20260507133031 | 41 | 273 | 1.0 | 2.0 | 0.00 | 0.02 | 0.00 | 99 | 1011.7 |
| 20260507132017 | 41 | 357 | 2.0 | 2.0 | 0.00 | 0.02 | 0.00 | 100 | 1011.6 |
| 20260507131037 | 40 | 313 | 1.0 | 2.0 | 0.00 | 0.02 | 0.00 | 99 | 1011.4 |
| 20260507130017 | 40 | 75 | 1.0 | 2.0 | 0.00 | 0.02 | 0.00 | 99 | 1011.4 |
| 20260507125018 | 40 | 84 | 1.0 | 2.0 | 0.00 | 0.02 | 0.00 | 99 | 1011.5 |
| 20260507124018 | 40 | 347 | 2.0 | 2.0 | 0.00 | 0.02 | 0.00 | 99 | 1011.5 |
| 20260507123018 | 40 | 30 | 1.0 | 2.0 | 0.00 | 0.02 | 0.00 | 99 | 1011.6 |
| 20260507122019 | 40 | 272 | 1.0 | 2.0 | 0.00 | 0.02 | 0.00 | 99 | 1011.5 |
| 20260507121039 | 41 | 284 | 1.0 | 3.0 | 0.00 | 0.02 | 0.00 | 99 | 1011.4 |
| 20260507120019 | 41 | 56 | 1.0 | 2.0 | 0.00 | 0.02 | 0.00 | 99 | 1011.3 |
| 20260507115019 | 41 | 64 | 2.0 | 3.0 | 0.00 | 0.02 | 0.00 | 99 | 1011.3 |
| 20260507114019 | 41 | 31 | 1.0 | 3.0 | 0.00 | 0.02 | 0.00 | 98 | 1011.1 |
| 20260507113019 | 42 | 272 | 1.0 | 2.0 | 0.00 | 0.02 | 0.00 | 98 | 1011.0 |
| 20260507112200 | 43 | 41 | 2.0 | 3.0 | 0.00 | 0.02 | 0.00 | 96 | 1010.9 |
| 20260507111020 | 44 | 256 | 1.0 | 2.0 | 0.00 | 0.02 | 0.00 | 94 | 1010.9 |
| 20260507110020 | 43 | 268 | 1.0 | 3.0 | 0.00 | 0.02 | 0.00 | 93 | 1010.8 |
| 20260507105020 | 45 | 316 | 2.0 | 3.0 | 0.00 | 0.02 | 0.00 | 91 | 1010.7 |
| 20260507104020 | 44 | 41 | 1.0 | 3.0 | 0.00 | 0.02 | 0.00 | 92 | 1010.6 |
| 20260507103020 | 46 | 335 | 3.0 | 5.0 | 0.00 | 0.02 | 0.00 | 87 | 1010.5 |
| 20260507102020 | 46 | 77 | 2.0 | 5.0 | 0.00 | 0.02 | 0.00 | 88 | 1010.4 |
| 20260507101018 | 46 | 315 | 3.0 | 6.0 | 0.00 | 0.02 | 0.00 | 86 | 1010.4 |
| 20260507100039 | 46 | 330 | 1.0 | 3.0 | 0.00 | 0.02 | 0.00 | 88 | 1010.4 |
| 20260507095018 | 47 | 323 | 1.0 | 3.0 | 0.00 | 0.02 | 0.00 | 85 | 1010.3 |
| 20260507094019 | 48 | 350 | 1.0 | 3.0 | 0.00 | 0.02 | 0.00 | 84 | 1010.3 |
| 20260507093019 | 48 | 104 | 1.0 | 3.0 | 0.00 | 0.02 | 0.00 | 83 | 1010.3 |
| 20260507092019 | 48 | 339 | 2.0 | 6.0 | 0.00 | 0.02 | 0.00 | 84 | 1010.3 |
| 20260507091019 | 47 | 285 | 1.0 | 3.0 | 0.00 | 0.02 | 0.00 | 87 | 1010.4 |
| 20260507090019 | 47 | 143 | 1.0 | 3.0 | 0.00 | 0.02 | 0.00 | 86 | 1010.2 |
| 20260507085016 | 48 | 251 | 1.0 | 2.0 | 0.00 | 0.02 | 0.00 | 84 | 1010.3 |
| 20260507084040 | 49 | 284 | 1.0 | 3.0 | 0.00 | 0.02 | 0.00 | 80 | 1010.2 |
| 20260507083021 | 50 | 154 | 2.0 | 3.0 | 0.00 | 0.02 | 0.00 | 79 | 1010.2 |
| 20260507082020 | 51 | 292 | 1.0 | 4.0 | 0.00 | 0.02 | 0.00 | 75 | 1010.3 |
| 20260507081037 | 51 | 219 | 1.0 | 2.0 | 0.00 | 0.02 | 0.00 | 77 | 1010.3 |
| 20260507080017 | 52 | 208 | 1.0 | 4.0 | 0.00 | 0.02 | 0.00 | 76 | 1010.1 |
| 20260507075017 | 54 | 326 | 1.0 | 3.0 | 0.00 | 0.02 | 0.00 | 71 | 1010.0 |
| 20260507074018 | 55 | 29 | 0.0 | 2.0 | 0.00 | 0.02 | 0.00 | 71 | 1010.0 |
| 20260507073018 | 57 | 235 | 1.0 | 2.0 | 0.00 | 0.02 | 0.00 | 65 | 1010.0 |
| 20260507072018 | 59 | 286 | 0.0 | 2.0 | 0.00 | 0.02 | 0.00 | 60 | 1010.0 |
| 20260507071018 | 61 | 259 | 2.0 | 3.0 | 0.00 | 0.02 | 0.00 | 56 | 1009.9 |
| 20260507070019 | 62 | 342 | 3.0 | 7.0 | 0.00 | 0.02 | 0.00 | 51 | 1010.0 |
| 20260507065038 | 62 | 337 | 4.0 | 9.0 | 0.00 | 0.02 | 0.00 | 50 | 1010.0 |
| 20260507064019 | 62 | 354 | 4.0 | 7.0 | 0.00 | 0.02 | 0.00 | 50 | 1010.0 |
| 20260507063019 | 62 | 25 | 3.0 | 6.0 | 0.00 | 0.02 | 0.00 | 49 | 1009.8 |
| 20260507062039 | 62 | 133 | 3.0 | 7.0 | 0.00 | 0.02 | 0.00 | 47 | 1009.7 |
| 20260507061019 | 58 | 278 | 5.0 | 16.0 | 0.00 | 0.02 | 0.00 | 53 | 1009.7 |
| 20260507060039 | 54 | 307 | 4.0 | 10.0 | 0.00 | 0.02 | 0.00 | 70 | 1009.8 |
| 20260507055020 | 51 | 124 | 4.0 | 19.0 | 0.00 | 0.02 | 0.00 | 76 | 1009.8 |
| 20260507054057 | 50 | 168 | 1.0 | 5.0 | 0.00 | 0.02 | 0.00 | 86 | 1009.9 |
| 20260507053020 | 50 | 261 | 2.0 | 4.0 | 0.00 | 0.02 | 0.00 | 86 | 1009.9 |
| 20260507052020 | 50 | 338 | 2.0 | 3.0 | 0.00 | 0.02 | 0.00 | 85 | 1009.9 |
| 20260507051040 | 51 | 53 | 1.0 | 2.0 | 0.00 | 0.02 | 0.00 | 83 | 1009.9 |
| 20260507050017 | 52 | 5 | 1.0 | 3.0 | 0.00 | 0.02 | 0.00 | 80 | 1009.8 |
| 20260507045017 | 54 | 319 | 1.0 | 4.0 | 0.00 | 0.02 | 0.00 | 76 | 1009.9 |
| 20260507044041 | 54 | 335 | 1.0 | 2.0 | 0.00 | 0.02 | 0.00 | 74 | 1009.9 |
| 20260507043018 | 54 | 3 | 2.0 | 4.0 | 0.00 | 0.02 | 0.00 | 74 | 1009.9 |
| 20260507042018 | 54 | 330 | 3.0 | 7.0 | 0.00 | 0.02 | 0.00 | 76 | 1009.9 |
| 20260507041018 | 54 | 255 | 2.0 | 3.0 | 0.00 | 0.02 | 0.00 | 76 | 1009.8 |
| 20260507040018 | 55 | 305 | 1.0 | 3.0 | 0.00 | 0.02 | 0.00 | 72 | 1009.7 |
| 20260507035018 | 55 | 296 | 3.0 | 5.0 | 0.00 | 0.02 | 0.00 | 75 | 1009.7 |
| 20260507034019 | 55 | 1 | 2.0 | 3.0 | 0.00 | 0.02 | 0.00 | 72 | 1009.6 |
| 20260507033016 | 54 | 323 | 1.0 | 4.0 | 0.00 | 0.02 | 0.00 | 75 | 1009.6 |
| 20260507032018 | 55 | 287 | 1.0 | 2.0 | 0.00 | 0.02 | 0.00 | 76 | 1009.4 |
| 20260507031019 | 56 | 355 | 2.0 | 5.0 | 0.00 | 0.02 | 0.00 | 73 | 1009.4 |
| 20260507030019 | 57 | 260 | 1.0 | 3.0 | 0.00 | 0.02 | 0.00 | 71 | 1009.3 |
| 20260507025016 | 57 | 350 | 2.0 | 3.0 | 0.00 | 0.02 | 0.00 | 68 | 1009.3 |
| 20260507024100 | 59 | 257 | 1.0 | 3.0 | 0.00 | 0.02 | 0.00 | 69 | 1009.4 |
| 20260507023040 | 60 | 183 | 2.0 | 3.0 | 0.00 | 0.02 | 0.00 | 60 | 1009.4 |
| 20260507022019 | 61 | 235 | 1.0 | 3.0 | 0.00 | 0.02 | 0.00 | 60 | 1009.6 |
| 20260507021020 | 62 | 230 | 2.0 | 3.0 | 0.00 | 0.02 | 0.00 | 57 | 1009.6 |
| 20260507020018 | 63 | 305 | 0.0 | 2.0 | 0.00 | 0.02 | 0.00 | 53 | 1009.5 |
| 20260507015038 | 63 | 323 | 2.0 | 4.0 | 0.00 | 0.02 | 0.00 | 52 | 1009.5 |
| 20260507014020 | 62 | 334 | 5.0 | 8.0 | 0.00 | 0.02 | 0.00 | 55 | 1009.6 |
| 20260507013021 | 63 | 345 | 5.0 | 8.0 | 0.00 | 0.02 | 0.00 | 63 | 1009.7 |
| 20260507012018 | 64 | 1 | 1.0 | 2.0 | 0.00 | 0.02 | 0.00 | 56 | 1009.4 |
| 20260507011018 | 64 | 83 | 1.0 | 2.0 | 0.00 | 0.02 | 0.00 | 57 | 1009.4 |
| 20260507010018 | 64 | 279 | 3.0 | 6.0 | 0.00 | 0.02 | 0.00 | 59 | 1009.6 |
| 20260507005019 | 64 | 331 | 2.0 | 4.0 | 0.00 | 0.02 | 0.00 | 60 | 1009.5 |
| 20260507004019 | 65 | 302 | 2.0 | 3.0 | 0.00 | 0.02 | 0.00 | 60 | 1009.5 |
| 20260507003019 | 65 | 215 | 1.0 | 2.0 | 0.02 | 0.02 | 0.00 | 58 | 1009.6 |
| 20260507002019 | 66 | 8 | 2.0 | 4.0 | 0.02 | 0.02 | 0.00 | 54 | 1009.9 |
| 20260507001019 | 66 | 185 | 2.0 | 4.0 | 0.02 | 0.02 | 0.00 | 50 | 1009.8 |
| 20260507000019 | 65 | 176 | 1.0 | 4.0 | 0.02 | 0.02 | 0.00 | 50 | 1009.7 |
| 20260506235016 | 65 | 279 | 2.0 | 6.0 | 0.02 | 0.02 | 0.02 | 51 | 1010.0 |